| time (UTC) | temp F | wind direction | speed MPH | gust MPH | rain 1hr in | rain 24hr in | rain mn in | humidity % | barometer mb |
| 20260510190822 | 61 | 321 | 0.0 | 0.0 | 0.00 | 0.09 | 0.09 | 76 | 1039.0 |
| 20260510190319 | 61 | 296 | 1.0 | 1.0 | 0.00 | 0.09 | 0.09 | 74 | 1039.0 |
| 20260510185815 | 61 | 323 | 0.0 | 1.0 | 0.00 | 0.09 | 0.09 | 76 | 1039.2 |
| 20260510185313 | 61 | 326 | 0.0 | 1.0 | 0.00 | 0.09 | 0.09 | 78 | 1039.1 |
| 20260510184810 | 61 | 328 | 0.0 | 0.0 | 0.00 | 0.09 | 0.09 | 77 | 1039.0 |
| 20260510184306 | 60 | 326 | 0.0 | 0.0 | 0.00 | 0.09 | 0.09 | 79 | 1039.0 |
| 20260510183801 | 60 | 321 | 0.0 | 1.0 | 0.00 | 0.09 | 0.09 | 78 | 1039.0 |
| 20260510183256 | 61 | 337 | 0.0 | 0.0 | 0.00 | 0.09 | 0.09 | 77 | 1039.0 |
| 20260510182753 | 60 | 324 | 0.0 | 0.0 | 0.00 | 0.09 | 0.09 | 82 | 1039.2 |
| 20260510182249 | 60 | 319 | 0.0 | 1.0 | 0.00 | 0.09 | 0.09 | 81 | 1039.0 |
| 20260510181746 | 60 | 323 | 0.0 | 1.0 | 0.00 | 0.09 | 0.09 | 80 | 1038.8 |
| 20260510181242 | 60 | 311 | 0.0 | 1.0 | 0.00 | 0.09 | 0.09 | 83 | 1039.1 |
| 20260510180738 | 60 | 319 | 0.0 | 1.0 | 0.00 | 0.09 | 0.09 | 85 | 1039.3 |
| 20260510180236 | 60 | 324 | 0.0 | 0.0 | 0.00 | 0.09 | 0.09 | 82 | 1039.2 |
| 20260510175733 | 61 | 305 | 0.0 | 1.0 | 0.00 | 0.09 | 0.09 | 83 | 1039.1 |
| 20260510175228 | 61 | 331 | 1.0 | 2.0 | 0.00 | 0.09 | 0.09 | 84 | 1039.3 |
| 20260510174726 | 61 | 319 | 0.0 | 1.0 | 0.00 | 0.09 | 0.09 | 83 | 1039.0 |
| 20260510174223 | 60 | 280 | 3.0 | 3.0 | 0.00 | 0.09 | 0.09 | 87 | 1039.2 |
| 20260510173719 | 60 | 297 | 1.0 | 2.0 | 0.00 | 0.09 | 0.09 | 87 | 1039.1 |
| 20260510173215 | 59 | 306 | 0.0 | 1.0 | 0.00 | 0.09 | 0.09 | 91 | 1039.1 |
| 20260510172710 | 59 | 287 | 1.0 | 2.0 | 0.00 | 0.09 | 0.09 | 90 | 1039.1 |
| 20260510172207 | 58 | 327 | 0.0 | 0.0 | 0.00 | 0.09 | 0.09 | 92 | 1038.9 |
| 20260510171703 | 57 | 352 | 1.0 | 2.0 | 0.00 | 0.09 | 0.09 | 93 | 1039.2 |
| 20260510171201 | 56 | 321 | 0.0 | 1.0 | 0.05 | 0.09 | 0.09 | 97 | 1039.3 |
| 20260510170657 | 56 | 322 | 0.0 | 0.0 | 0.12 | 0.09 | 0.09 | 96 | 1039.4 |
| 20260510170154 | 56 | 332 | 0.0 | 0.0 | 0.12 | 0.08 | 0.08 | 95 | 1039.4 |
| 20260510165650 | 56 | 330 | 0.0 | 0.0 | 0.05 | 0.07 | 0.07 | 94 | 1039.5 |
| 20260510165145 | 56 | 1 | 0.0 | 0.0 | 0.00 | 0.06 | 0.06 | 94 | 1039.3 |
| 20260510164644 | 56 | 333 | 1.0 | 1.0 | 0.00 | 0.06 | 0.06 | 94 | 1039.2 |
| 20260510164141 | 56 | 321 | 0.0 | 0.0 | 0.00 | 0.06 | 0.06 | 94 | 1039.3 |
| 20260510163636 | 56 | 336 | 0.0 | 0.0 | 0.00 | 0.06 | 0.06 | 95 | 1039.2 |
| 20260510163131 | 55 | 351 | 0.0 | 0.0 | 0.00 | 0.06 | 0.06 | 96 | 1039.1 |
| 20260510162626 | 55 | 344 | 0.0 | 0.0 | 0.07 | 0.06 | 0.06 | 96 | 1039.1 |
| 20260510162123 | 55 | 6 | 0.0 | 0.0 | 0.07 | 0.06 | 0.06 | 96 | 1039.1 |
| 20260510161618 | 55 | 331 | 0.0 | 0.0 | 0.00 | 0.05 | 0.05 | 96 | 1039.1 |
| 20260510161115 | 55 | 335 | 0.0 | 0.0 | 0.00 | 0.05 | 0.05 | 95 | 1039.1 |
| 20260510160613 | 55 | 347 | 0.0 | 0.0 | 0.00 | 0.05 | 0.05 | 95 | 1039.2 |
| 20260510160112 | 55 | 331 | 0.0 | 0.0 | 0.00 | 0.05 | 0.05 | 95 | 1039.0 |
| 20260510155609 | 55 | 331 | 0.0 | 0.0 | 0.00 | 0.05 | 0.05 | 94 | 1039.0 |
| 20260510155106 | 55 | 347 | 0.0 | 0.0 | 0.12 | 0.05 | 0.05 | 94 | 1038.9 |
| 20260510154601 | 55 | 346 | 0.0 | 0.0 | 0.28 | 0.05 | 0.05 | 93 | 1039.2 |
| 20260510154056 | 56 | 328 | 0.0 | 1.0 | 0.17 | 0.03 | 0.03 | 91 | 1039.3 |
| 20260510153551 | 56 | 314 | 1.0 | 2.0 | 0.00 | 0.00 | 0.00 | 87 | 1039.5 |
| 20260510153049 | 57 | 276 | 1.0 | 1.0 | 0.00 | 0.00 | 0.00 | 85 | 1039.2 |
| 20260510152545 | 57 | 328 | 0.0 | 0.0 | 0.00 | 0.00 | 0.00 | 84 | 1038.9 |
| 20260510152042 | 57 | 302 | 2.0 | 3.0 | 0.00 | 0.00 | 0.00 | 83 | 1038.9 |
| 20260510151538 | 57 | 316 | 0.0 | 1.0 | 0.00 | 0.00 | 0.00 | 83 | 1038.6 |
| 20260510151036 | 57 | 24 | 2.0 | 3.0 | 0.00 | 0.00 | 0.00 | 82 | 1038.5 |
| 20260510150531 | 57 | 164 | 3.0 | 5.0 | 0.00 | 0.00 | 0.00 | 82 | 1038.3 |
| 20260510150027 | 57 | 334 | 0.0 | 0.0 | 0.00 | 0.00 | 0.00 | 86 | 1038.2 |
| 20260510145524 | 56 | 18 | 1.0 | 1.0 | 0.00 | 0.00 | 0.00 | 84 | 1038.2 |
| 20260510145020 | 56 | 335 | 0.0 | 1.0 | 0.00 | 0.00 | 0.00 | 83 | 1038.4 |
| 20260510144517 | 57 | 18 | 1.0 | 1.0 | 0.00 | 0.00 | 0.00 | 83 | 1038.4 |
| 20260510144013 | 57 | 315 | 0.0 | 1.0 | 0.00 | 0.00 | 0.00 | 84 | 1038.5 |
| 20260510143508 | 57 | 336 | 0.0 | 1.0 | 0.00 | 0.00 | 0.00 | 84 | 1038.5 |
| 20260510143005 | 57 | 318 | 1.0 | 1.0 | 0.00 | 0.00 | 0.00 | 84 | 1038.5 |
| 20260510142502 | 56 | 327 | 0.0 | 0.0 | 0.00 | 0.00 | 0.00 | 85 | 1038.5 |
| 20260510141958 | 56 | 349 | 1.0 | 1.0 | 0.00 | 0.00 | 0.00 | 85 | 1038.4 |
| 20260510141455 | 55 | 1 | 1.0 | 1.0 | 0.00 | 0.00 | 0.00 | 86 | 1038.7 |
| 20260510140953 | 55 | 150 | 2.0 | 2.0 | 0.00 | 0.00 | 0.00 | 85 | 1038.7 |
| 20260510140449 | 55 | 79 | 2.0 | 2.0 | 0.00 | 0.00 | 0.00 | 86 | 1038.7 |
| 20260510135948 | 55 | 125 | 2.0 | 2.0 | 0.00 | 0.00 | 0.00 | 87 | 1038.8 |
| 20260510135444 | 55 | 81 | 2.0 | 2.0 | 0.00 | 0.00 | 0.00 | 87 | 1038.7 |
| 20260510134941 | 55 | 331 | 1.0 | 1.0 | 0.00 | 0.00 | 0.00 | 87 | 1039.0 |
| 20260510134437 | 54 | 287 | 1.0 | 2.0 | 0.00 | 0.00 | 0.00 | 89 | 1038.8 |
| 20260510133934 | 54 | 324 | 0.0 | 1.0 | 0.00 | 0.00 | 0.00 | 90 | 1038.8 |
| 20260510133431 | 53 | 6 | 0.0 | 1.0 | 0.00 | 0.00 | 0.00 | 90 | 1038.8 |
| 20260510132926 | 53 | 184 | 3.0 | 3.0 | 0.00 | 0.00 | 0.00 | 90 | 1038.8 |
| 20260510132424 | 53 | 12 | 1.0 | 1.0 | 0.00 | 0.00 | 0.00 | 90 | 1038.9 |
| 20260510131921 | 53 | 339 | 0.0 | 0.0 | 0.00 | 0.00 | 0.00 | 91 | 1038.6 |
| 20260510131418 | 53 | 243 | 1.0 | 2.0 | 0.00 | 0.00 | 0.00 | 91 | 1038.6 |
| 20260510130914 | 52 | 42 | 1.0 | 2.0 | 0.00 | 0.00 | 0.00 | 92 | 1038.6 |
| 20260510130412 | 52 | 145 | 2.0 | 2.0 | 0.00 | 0.00 | 0.00 | 92 | 1038.7 |
| 20260510125909 | 52 | 109 | 2.0 | 2.0 | 0.00 | 0.00 | 0.00 | 93 | 1038.6 |
| 20260510125405 | 52 | 7 | 0.0 | 1.0 | 0.00 | 0.00 | 0.00 | 95 | 1038.5 |
| 20260510124902 | 52 | 344 | 0.0 | 0.0 | 0.00 | 0.00 | 0.00 | 94 | 1038.7 |
| 20260510124358 | 52 | 28 | 1.0 | 1.0 | 0.00 | 0.00 | 0.00 | 94 | 1038.9 |
| 20260510123854 | 51 | 329 | 0.0 | 0.0 | 0.00 | 0.00 | 0.00 | 94 | 1038.9 |
| 20260510123350 | 51 | 340 | 0.0 | 0.0 | 0.00 | 0.00 | 0.00 | 95 | 1038.7 |
| 20260510122846 | 51 | 308 | 0.0 | 0.0 | 0.00 | 0.00 | 0.00 | 95 | 1038.8 |
| 20260510122342 | 51 | 351 | 0.0 | 1.0 | 0.00 | 0.00 | 0.00 | 95 | 1038.9 |
| 20260510121839 | 51 | 1 | 0.0 | 0.0 | 0.00 | 0.00 | 0.00 | 95 | 1038.9 |
| 20260510121337 | 50 | 154 | 0.0 | 0.0 | 0.00 | 0.00 | 0.00 | 96 | 1038.9 |
| 20260510120833 | 50 | 328 | 0.0 | 0.0 | 0.00 | 0.00 | 0.00 | 96 | 1039.0 |
| 20260510120331 | 50 | 328 | 0.0 | 0.0 | 0.00 | 0.00 | 0.00 | 96 | 1038.9 |
| 20260510115826 | 50 | 326 | 0.0 | 0.0 | 0.00 | 0.00 | 0.00 | 97 | 1038.8 |
| 20260510115324 | 50 | 328 | 0.0 | 0.0 | 0.00 | 0.00 | 0.00 | 97 | 1038.6 |
| 20260510114819 | 50 | 334 | 0.0 | 0.0 | 0.00 | 0.00 | 0.00 | 97 | 1038.4 |
| 20260510114317 | 49 | 331 | 0.0 | 0.0 | 0.00 | 0.00 | 0.00 | 97 | 1038.3 |
| 20260510113811 | 49 | 8 | 0.0 | 0.0 | 0.00 | 0.00 | 0.00 | 97 | 1038.3 |
| 20260510113309 | 49 | 1 | 0.0 | 0.0 | 0.00 | 0.00 | 0.00 | 97 | 1038.5 |
| 20260510112805 | 49 | 337 | 0.0 | 0.0 | 0.00 | 0.00 | 0.00 | 97 | 1038.5 |
| 20260510112305 | 48 | 338 | 0.0 | 0.0 | 0.00 | 0.00 | 0.00 | 97 | 1038.4 |
| 20260510111758 | 48 | 336 | 0.0 | 0.0 | 0.00 | 0.00 | 0.00 | 97 | 1038.3 |
| 20260510111255 | 48 | 340 | 0.0 | 0.0 | 0.00 | 0.00 | 0.00 | 97 | 1038.0 |
| 20260510110754 | 48 | 331 | 0.0 | 0.0 | 0.00 | 0.00 | 0.00 | 97 | 1038.4 |
| 20260510110253 | 48 | 331 | 0.0 | 0.0 | 0.00 | 0.00 | 0.00 | 97 | 1038.4 |
| 20260510105752 | 48 | 1 | 0.0 | 0.0 | 0.00 | 0.00 | 0.00 | 97 | 1038.4 |
| 20260510105247 | 48 | 352 | 0.0 | 0.0 | 0.00 | 0.00 | 0.00 | 97 | 1038.2 |
| 20260510104744 | 48 | 337 | 0.0 | 0.0 | 0.00 | 0.00 | 0.00 | 97 | 1037.9 |
| 20260510104242 | 48 | 345 | 0.0 | 0.0 | 0.00 | 0.00 | 0.00 | 97 | 1038.1 |
| 20260510103737 | 47 | 346 | 0.0 | 0.0 | 0.00 | 0.00 | 0.00 | 97 | 1038.0 |
| 20260510103235 | 47 | 345 | 0.0 | 0.0 | 0.00 | 0.00 | 0.00 | 97 | 1037.9 |
| 20260510102734 | 48 | 344 | 0.0 | 0.0 | 0.00 | 0.00 | 0.00 | 97 | 1037.9 |
| 20260510102230 | 48 | 344 | 0.0 | 0.0 | 0.00 | 0.00 | 0.00 | 97 | 1037.6 |
| 20260510101728 | 48 | 346 | 0.0 | 0.0 | 0.00 | 0.00 | 0.00 | 97 | 1037.5 |
| 20260510101226 | 47 | 347 | 0.0 | 0.0 | 0.00 | 0.00 | 0.00 | 97 | 1037.3 |
| 20260510100722 | 47 | 349 | 0.0 | 0.0 | 0.00 | 0.00 | 0.00 | 97 | 1037.1 |
| 20260510100220 | 47 | 332 | 0.0 | 0.0 | 0.00 | 0.00 | 0.00 | 97 | 1037.0 |
| 20260510095715 | 47 | 328 | 0.0 | 0.0 | 0.00 | 0.00 | 0.00 | 97 | 1037.0 |
| 20260510095211 | 47 | 328 | 0.0 | 0.0 | 0.00 | 0.00 | 0.00 | 97 | 1037.2 |
| 20260510094709 | 47 | 328 | 0.0 | 0.0 | 0.00 | 0.00 | 0.00 | 97 | 1036.8 |
| 20260510094206 | 47 | 332 | 0.0 | 1.0 | 0.00 | 0.00 | 0.00 | 97 | 1036.8 |
| 20260510093701 | 47 | 24 | 1.0 | 1.0 | 0.00 | 0.00 | 0.00 | 97 | 1037.0 |
| 20260510093159 | 47 | 329 | 0.0 | 0.0 | 0.00 | 0.00 | 0.00 | 97 | 1037.0 |
| 20260510092655 | 47 | 339 | 0.0 | 0.0 | 0.00 | 0.00 | 0.00 | 97 | 1036.7 |
| 20260510092151 | 47 | 351 | 0.0 | 0.0 | 0.00 | 0.00 | 0.00 | 97 | 1036.6 |
| 20260510091647 | 47 | 7 | 1.0 | 1.0 | 0.00 | 0.00 | 0.00 | 97 | 1036.4 |
| 20260510091143 | 47 | 338 | 0.0 | 0.0 | 0.00 | 0.00 | 0.00 | 97 | 1036.5 |
| 20260510090640 | 47 | 341 | 0.0 | 0.0 | 0.00 | 0.00 | 0.00 | 97 | 1036.5 |
| 20260510090136 | 47 | 38 | 1.0 | 1.0 | 0.00 | 0.00 | 0.00 | 97 | 1036.6 |
| 20260510085632 | 47 | 334 | 0.0 | 0.0 | 0.00 | 0.00 | 0.00 | 97 | 1036.9 |
| 20260510085127 | 47 | 333 | 0.0 | 0.0 | 0.00 | 0.00 | 0.00 | 97 | 1036.9 |
| 20260510084624 | 47 | 327 | 0.0 | 0.0 | 0.00 | 0.00 | 0.00 | 97 | 1036.9 |
| 20260510084121 | 47 | 351 | 0.0 | 0.0 | 0.00 | 0.00 | 0.00 | 97 | 1037.1 |
| 20260510083617 | 47 | 328 | 0.0 | 0.0 | 0.00 | 0.00 | 0.00 | 96 | 1037.3 |
| 20260510083113 | 47 | 328 | 0.0 | 0.0 | 0.00 | 0.00 | 0.00 | 96 | 1037.2 |
| 20260510082610 | 47 | 317 | 0.0 | 0.0 | 0.00 | 0.00 | 0.00 | 96 | 1037.2 |
| 20260510082106 | 47 | 341 | 0.0 | 0.0 | 0.00 | 0.00 | 0.00 | 96 | 1037.3 |
| 20260510081600 | 47 | 342 | 0.0 | 0.0 | 0.00 | 0.00 | 0.00 | 96 | 1037.7 |
| 20260510081056 | 47 | 326 | 0.0 | 0.0 | 0.00 | 0.00 | 0.00 | 96 | 1037.5 |
| 20260510080556 | 47 | 333 | 0.0 | 0.0 | 0.00 | 0.00 | 0.00 | 96 | 1037.4 |
| 20260510080053 | 47 | 7 | 0.0 | 1.0 | 0.00 | 0.00 | 0.00 | 96 | 1037.6 |
| 20260510075550 | 47 | 343 | 0.0 | 0.0 | 0.00 | 0.00 | 0.00 | 96 | 1037.4 |
| 20260510075047 | 47 | 354 | 0.0 | 0.0 | 0.00 | 0.00 | 0.00 | 96 | 1037.3 |
| 20260510074544 | 47 | 342 | 0.0 | 0.0 | 0.00 | 0.00 | 0.00 | 96 | 1037.4 |
| 20260510074039 | 47 | 6 | 0.0 | 1.0 | 0.00 | 0.00 | 0.00 | 96 | 1037.1 |
| 20260510073536 | 47 | 328 | 0.0 | 0.0 | 0.00 | 0.00 | 0.00 | 96 | 1037.4 |
| 20260510073033 | 47 | 357 | 0.0 | 1.0 | 0.00 | 0.00 | 0.00 | 96 | 1037.1 |
| 20260510072530 | 47 | 332 | 0.0 | 0.0 | 0.00 | 0.00 | 0.00 | 96 | 1037.1 |
| 20260510072025 | 47 | 254 | 1.0 | 2.0 | 0.00 | 0.00 | 0.00 | 97 | 1037.2 |
| 20260510071521 | 47 | 337 | 0.0 | 0.0 | 0.00 | 0.00 | 0.00 | 97 | 1037.3 |
| 20260510071020 | 47 | 327 | 0.0 | 0.0 | 0.00 | 0.00 | 0.00 | 97 | 1037.3 |
| 20260510070517 | 47 | 335 | 0.0 | 0.0 | 0.00 | 0.00 | 0.00 | 97 | 1037.1 |
| 20260510070013 | 47 | 359 | 0.0 | 0.0 | 0.00 | 0.00 | 0.00 | 97 | 1037.2 |
| 20260510065510 | 47 | 344 | 0.0 | 0.0 | 0.00 | 0.00 | 0.00 | 96 | 1037.7 |
| 20260510065006 | 48 | 324 | 0.0 | 0.0 | 0.00 | 0.00 | 0.00 | 96 | 1037.7 |
| 20260510064503 | 48 | 338 | 0.0 | 0.0 | 0.00 | 0.00 | 0.00 | 96 | 1037.4 |
| 20260510063959 | 48 | 4 | 0.0 | 0.0 | 0.00 | 0.00 | 0.00 | 96 | 1037.3 |
| 20260510063456 | 48 | 5 | 0.0 | 0.0 | 0.00 | 0.00 | 0.00 | 97 | 1037.1 |
| 20260510062954 | 48 | 333 | 0.0 | 0.0 | 0.00 | 0.00 | 0.00 | 97 | 1037.2 |
| 20260510062449 | 47 | 344 | 0.0 | 0.0 | 0.00 | 0.00 | 0.00 | 97 | 1037.2 |
| 20260510061944 | 47 | 332 | 0.0 | 0.0 | 0.00 | 0.00 | 0.00 | 96 | 1037.1 |
| 20260510061441 | 47 | 332 | 0.0 | 0.0 | 0.00 | 0.00 | 0.00 | 97 | 1037.1 |
| 20260510060937 | 47 | 205 | 1.0 | 2.0 | 0.00 | 0.00 | 0.00 | 97 | 1037.2 |
| 20260510060434 | 47 | 342 | 0.0 | 0.0 | 0.00 | 0.00 | 0.00 | 97 | 1037.3 |
| 20260510055931 | 47 | 356 | 0.0 | 0.0 | 0.00 | 0.00 | 0.00 | 97 | 1037.4 |
| 20260510055426 | 47 | 0 | 0.0 | 0.0 | 0.00 | 0.00 | 0.00 | 97 | 1037.4 |
| 20260510054919 | 47 | 333 | 0.0 | 0.0 | 0.00 | 0.00 | 0.00 | 97 | 1037.4 |
| 20260510054414 | 47 | 335 | 0.0 | 0.0 | 0.00 | 0.00 | 0.00 | 97 | 1037.6 |
| 20260510053909 | 47 | 326 | 0.0 | 0.0 | 0.00 | 0.00 | 0.00 | 97 | 1037.6 |
| 20260510053405 | 47 | 326 | 0.0 | 0.0 | 0.00 | 0.00 | 0.00 | 97 | 1037.7 |
| 20260510052901 | 47 | 334 | 0.0 | 0.0 | 0.00 | 0.00 | 0.00 | 97 | 1037.6 |
| 20260510052357 | 47 | 344 | 0.0 | 0.0 | 0.00 | 0.00 | 0.00 | 97 | 1037.6 |
| 20260510051854 | 47 | 14 | 1.0 | 1.0 | 0.00 | 0.00 | 0.00 | 97 | 1037.4 |
| 20260510051350 | 47 | 353 | 0.0 | 0.0 | 0.00 | 0.00 | 0.00 | 97 | 1037.4 |
| 20260510050847 | 47 | 0 | 0.0 | 0.0 | 0.00 | 0.00 | 0.00 | 97 | 1037.6 |
| 20260510050344 | 47 | 336 | 0.0 | 0.0 | 0.00 | 0.00 | 0.00 | 97 | 1037.7 |
| 20260510045841 | 47 | 350 | 0.0 | 0.0 | 0.00 | 0.00 | 0.00 | 97 | 1037.9 |
| 20260510045338 | 47 | 335 | 0.0 | 1.0 | 0.00 | 0.00 | 0.00 | 97 | 1037.9 |
| 20260510044835 | 47 | 345 | 0.0 | 0.0 | 0.00 | 0.00 | 0.00 | 97 | 1037.8 |
| 20260510044332 | 47 | 338 | 0.0 | 0.0 | 0.00 | 0.00 | 0.00 | 97 | 1037.7 |
| 20260510043828 | 47 | 353 | 0.0 | 0.0 | 0.00 | 0.00 | 0.00 | 97 | 1037.6 |
| 20260510043324 | 46 | 345 | 0.0 | 0.0 | 0.00 | 0.00 | 0.00 | 97 | 1037.5 |
| 20260510042822 | 46 | 357 | 0.0 | 0.0 | 0.00 | 0.00 | 0.00 | 96 | 1037.6 |
| 20260510042318 | 46 | 342 | 0.0 | 1.0 | 0.00 | 0.00 | 0.00 | 97 | 1037.7 |
| 20260510041814 | 46 | 335 | 0.0 | 0.0 | 0.00 | 0.00 | 0.00 | 97 | 1037.8 |
| 20260510041312 | 46 | 341 | 0.0 | 0.0 | 0.00 | 0.00 | 0.00 | 97 | 1037.8 |
| 20260510040809 | 46 | 334 | 0.0 | 0.0 | 0.00 | 0.00 | 0.00 | 97 | 1037.8 |
| 20260510040305 | 46 | 340 | 0.0 | 0.0 | 0.00 | 0.00 | 0.00 | 97 | 1037.9 |
| 20260510035801 | 46 | 331 | 0.0 | 0.0 | 0.00 | 0.17 | 0.17 | 97 | 1037.9 |
| 20260510035257 | 46 | 341 | 0.0 | 0.0 | 0.00 | 0.17 | 0.17 | 97 | 1037.8 |
| 20260510034753 | 46 | 358 | 0.0 | 0.0 | 0.00 | 0.17 | 0.17 | 97 | 1037.9 |
| 20260510034250 | 46 | 27 | 0.0 | 0.0 | 0.00 | 0.17 | 0.17 | 97 | 1037.8 |
| 20260510033747 | 46 | 3 | 0.0 | 0.0 | 0.00 | 0.17 | 0.17 | 98 | 1037.7 |
| 20260510033244 | 46 | 49 | 1.0 | 1.0 | 0.00 | 0.17 | 0.17 | 97 | 1037.7 |
| 20260510032740 | 46 | 19 | 0.0 | 0.0 | 0.00 | 0.17 | 0.17 | 97 | 1037.9 |
| 20260510032236 | 46 | 73 | 2.0 | 2.0 | 0.00 | 0.17 | 0.17 | 97 | 1037.8 |
| 20260510031732 | 46 | 40 | 1.0 | 2.0 | 0.00 | 0.17 | 0.17 | 97 | 1037.8 |
| 20260510031228 | 46 | 168 | 1.0 | 2.0 | 0.00 | 0.17 | 0.17 | 98 | 1038.0 |
| 20260510030727 | 46 | 16 | 2.0 | 2.0 | 0.00 | 0.17 | 0.17 | 97 | 1037.9 |
| 20260510030225 | 46 | 38 | 1.0 | 1.0 | 0.00 | 0.17 | 0.17 | 97 | 1038.0 |
| 20260510025722 | 46 | 8 | 1.0 | 1.0 | 0.00 | 0.17 | 0.17 | 98 | 1038.3 |
| 20260510025220 | 46 | 315 | 1.0 | 1.0 | 0.00 | 0.17 | 0.17 | 98 | 1038.0 |
| 20260510024716 | 46 | 65 | 1.0 | 2.0 | 0.00 | 0.17 | 0.17 | 98 | 1037.9 |
| 20260510024214 | 46 | 46 | 2.0 | 2.0 | 0.00 | 0.17 | 0.17 | 98 | 1038.0 |
| 20260510023708 | 46 | 358 | 0.0 | 1.0 | 0.00 | 0.17 | 0.17 | 97 | 1038.2 |
| 20260510023206 | 46 | 47 | 1.0 | 2.0 | 0.00 | 0.17 | 0.17 | 97 | 1038.3 |
| 20260510022701 | 46 | 29 | 1.0 | 1.0 | 0.00 | 0.17 | 0.17 | 97 | 1038.2 |
| 20260510022150 | 46 | 1 | 1.0 | 1.0 | 0.00 | 0.17 | 0.17 | 97 | 1038.3 |
| 20260510021646 | 46 | 29 | 1.0 | 2.0 | 0.00 | 0.17 | 0.17 | 97 | 1038.5 |
| 20260510021144 | 46 | 63 | 2.0 | 2.0 | 0.00 | 0.17 | 0.17 | 97 | 1038.8 |
| 20260510020638 | 46 | 50 | 1.0 | 2.0 | 0.00 | 0.17 | 0.17 | 97 | 1038.6 |
| 20260510020134 | 46 | 9 | 1.0 | 1.0 | 0.00 | 0.17 | 0.17 | 97 | 1038.7 |
| 20260510015630 | 46 | 340 | 1.0 | 1.0 | 0.00 | 0.17 | 0.17 | 97 | 1038.7 |
| 20260510015127 | 46 | 25 | 0.0 | 1.0 | 0.00 | 0.17 | 0.17 | 97 | 1038.7 |
| 20260510014622 | 46 | 89 | 1.0 | 2.0 | 0.00 | 0.17 | 0.17 | 96 | 1038.7 |
| 20260510014119 | 46 | 60 | 3.0 | 3.0 | 0.00 | 0.17 | 0.17 | 97 | 1038.6 |
| 20260510013614 | 46 | 33 | 2.0 | 2.0 | 0.00 | 0.17 | 0.17 | 97 | 1038.5 |
| 20260510013109 | 46 | 26 | 2.0 | 2.0 | 0.00 | 0.17 | 0.17 | 97 | 1038.4 |
| 20260510012608 | 46 | 1 | 1.0 | 1.0 | 0.00 | 0.17 | 0.17 | 97 | 1038.5 |
| 20260510012106 | 46 | 51 | 2.0 | 2.0 | 0.00 | 0.17 | 0.17 | 97 | 1038.5 |
| 20260510011604 | 46 | 32 | 1.0 | 2.0 | 0.00 | 0.17 | 0.17 | 96 | 1038.6 |
| 20260510011101 | 46 | 26 | 2.0 | 2.0 | 0.00 | 0.17 | 0.17 | 96 | 1038.3 |
| 20260510010558 | 46 | 64 | 2.0 | 2.0 | 0.00 | 0.17 | 0.17 | 96 | 1038.8 |
| 20260510010055 | 46 | 87 | 3.0 | 3.0 | 0.00 | 0.17 | 0.17 | 96 | 1038.7 |
| 20260510005550 | 46 | 326 | 1.0 | 1.0 | 0.00 | 0.17 | 0.17 | 96 | 1038.5 |
| 20260510005048 | 46 | 90 | 2.0 | 2.0 | 0.00 | 0.17 | 0.17 | 96 | 1038.8 |
| 20260510004545 | 46 | 56 | 2.0 | 2.0 | 0.00 | 0.17 | 0.17 | 96 | 1038.5 |
| 20260510004043 | 46 | 21 | 1.0 | 2.0 | 0.00 | 0.17 | 0.17 | 96 | 1038.6 |
| 20260510003540 | 46 | 343 | 0.0 | 1.0 | 0.00 | 0.17 | 0.17 | 96 | 1038.6 |
| 20260510003035 | 46 | 76 | 3.0 | 3.0 | 0.00 | 0.17 | 0.17 | 96 | 1038.4 |
| 20260510002531 | 46 | 18 | 2.0 | 3.0 | 0.00 | 0.17 | 0.17 | 96 | 1038.3 |
| 20260510002028 | 46 | 84 | 3.0 | 3.0 | 0.00 | 0.17 | 0.17 | 97 | 1038.3 |
| 20260510001525 | 46 | 355 | 0.0 | 1.0 | 0.00 | 0.17 | 0.17 | 96 | 1038.3 |
| 20260510001024 | 46 | 6 | 0.0 | 1.0 | 0.00 | 0.17 | 0.17 | 96 | 1038.2 |
| 20260510000518 | 46 | 1 | 0.0 | 0.0 | 0.00 | 0.17 | 0.17 | 96 | 1037.9 |
| 20260510000016 | 46 | 52 | 3.0 | 3.0 | 0.00 | 0.17 | 0.17 | 96 | 1038.0 |
| 20260509235512 | 46 | 80 | 2.0 | 3.0 | 0.00 | 0.17 | 0.17 | 96 | 1038.0 |
| 20260509235009 | 46 | 88 | 4.0 | 5.0 | 0.00 | 0.17 | 0.17 | 96 | 1038.0 |
| 20260509234505 | 46 | 77 | 2.0 | 2.0 | 0.00 | 0.17 | 0.17 | 97 | 1037.8 |
| 20260509234004 | 46 | 34 | 1.0 | 2.0 | 0.00 | 0.17 | 0.17 | 97 | 1037.9 |
| 20260509233500 | 46 | 46 | 1.0 | 2.0 | 0.00 | 0.17 | 0.17 | 97 | 1037.9 |
| 20260509232956 | 46 | 35 | 1.0 | 1.0 | 0.00 | 0.17 | 0.17 | 96 | 1037.9 |
| 20260509232455 | 46 | 4 | 1.0 | 1.0 | 0.00 | 0.17 | 0.17 | 96 | 1038.0 |
| 20260509231950 | 46 | 85 | 3.0 | 5.0 | 0.00 | 0.17 | 0.17 | 96 | 1037.8 |
| 20260509231447 | 46 | 59 | 1.0 | 2.0 | 0.00 | 0.17 | 0.17 | 97 | 1037.8 |
| 20260509230945 | 46 | 102 | 2.0 | 3.0 | 0.00 | 0.17 | 0.17 | 97 | 1037.8 |
| 20260509230441 | 46 | 104 | 3.0 | 3.0 | 0.00 | 0.17 | 0.17 | 96 | 1038.0 |
| 20260509225938 | 46 | 23 | 2.0 | 3.0 | 0.00 | 0.17 | 0.17 | 96 | 1037.9 |
| 20260509225434 | 46 | 94 | 4.0 | 5.0 | 0.00 | 0.17 | 0.17 | 96 | 1038.1 |
| 20260509224930 | 46 | 81 | 3.0 | 3.0 | 0.00 | 0.17 | 0.17 | 96 | 1038.0 |
| 20260509224425 | 46 | 75 | 3.0 | 3.0 | 0.00 | 0.17 | 0.17 | 96 | 1038.0 |
| 20260509223923 | 46 | 20 | 2.0 | 2.0 | 0.00 | 0.17 | 0.17 | 97 | 1038.0 |
| 20260509223419 | 46 | 95 | 2.0 | 2.0 | 0.00 | 0.17 | 0.17 | 97 | 1038.3 |
| 20260509222917 | 46 | 44 | 2.0 | 2.0 | 0.00 | 0.17 | 0.17 | 97 | 1038.1 |
| 20260509222412 | 46 | 33 | 1.0 | 1.0 | 0.00 | 0.17 | 0.17 | 97 | 1038.3 |
| 20260509221908 | 46 | 72 | 2.0 | 2.0 | 0.00 | 0.17 | 0.17 | 97 | 1038.3 |
| 20260509221405 | 46 | 48 | 2.0 | 2.0 | 0.00 | 0.17 | 0.17 | 97 | 1038.3 |
| 20260509220901 | 46 | 85 | 2.0 | 2.0 | 0.00 | 0.17 | 0.17 | 97 | 1038.3 |
| 20260509220357 | 46 | 61 | 1.0 | 1.0 | 0.00 | 0.17 | 0.17 | 97 | 1038.4 |
| 20260509215852 | 46 | 7 | 0.0 | 1.0 | 0.00 | 0.17 | 0.17 | 97 | 1038.3 |
| 20260509215349 | 46 | 38 | 1.0 | 1.0 | 0.00 | 0.17 | 0.17 | 97 | 1038.2 |
| 20260509214846 | 46 | 343 | 1.0 | 2.0 | 0.00 | 0.17 | 0.17 | 97 | 1038.5 |
| 20260509214344 | 46 | 350 | 0.0 | 0.0 | 0.00 | 0.17 | 0.17 | 98 | 1038.5 |
| 20260509213840 | 46 | 329 | 0.0 | 1.0 | 0.00 | 0.17 | 0.17 | 97 | 1038.5 |
| 20260509213336 | 46 | 358 | 0.0 | 0.0 | 0.00 | 0.17 | 0.17 | 97 | 1038.8 |
| 20260509212833 | 46 | 276 | 1.0 | 2.0 | 0.00 | 0.17 | 0.17 | 98 | 1038.5 |
| 20260509212331 | 46 | 79 | 3.0 | 3.0 | 0.00 | 0.17 | 0.17 | 98 | 1038.8 |
| 20260509211827 | 46 | 40 | 1.0 | 1.0 | 0.00 | 0.17 | 0.17 | 98 | 1038.6 |
| 20260509211323 | 46 | 29 | 1.0 | 1.0 | 0.00 | 0.17 | 0.17 | 98 | 1038.7 |
| 20260509210820 | 46 | 40 | 1.0 | 1.0 | 0.00 | 0.17 | 0.17 | 98 | 1038.7 |
| 20260509210317 | 46 | 64 | 2.0 | 2.0 | 0.00 | 0.17 | 0.17 | 98 | 1038.5 |
| 20260509205818 | 46 | 359 | 1.0 | 1.0 | 0.00 | 0.17 | 0.17 | 98 | 1038.6 |
| 20260509205312 | 46 | 30 | 1.0 | 1.0 | 0.00 | 0.17 | 0.17 | 98 | 1038.6 |
| 20260509204808 | 46 | 350 | 1.0 | 1.0 | 0.00 | 0.17 | 0.17 | 98 | 1038.6 |
| 20260509204304 | 46 | 354 | 2.0 | 2.0 | 0.00 | 0.17 | 0.17 | 98 | 1038.6 |
| 20260509203800 | 46 | 5 | 1.0 | 1.0 | 0.00 | 0.17 | 0.17 | 98 | 1038.6 |
| 20260509203258 | 46 | 29 | 1.0 | 2.0 | 0.00 | 0.17 | 0.17 | 98 | 1038.6 |
| 20260509202754 | 46 | 79 | 2.0 | 2.0 | 0.00 | 0.17 | 0.17 | 98 | 1038.5 |
| 20260509202250 | 46 | 7 | 0.0 | 1.0 | 0.00 | 0.17 | 0.17 | 98 | 1038.6 |
| 20260509201750 | 46 | 14 | 1.0 | 1.0 | 0.00 | 0.17 | 0.17 | 98 | 1038.9 |
| 20260509201247 | 46 | 24 | 0.0 | 1.0 | 0.00 | 0.17 | 0.17 | 98 | 1038.7 |
| 20260509200743 | 46 | 10 | 0.0 | 0.0 | 0.00 | 0.17 | 0.17 | 98 | 1038.7 |
| 20260509200238 | 46 | 354 | 1.0 | 1.0 | 0.00 | 0.17 | 0.17 | 98 | 1038.7 |
| 20260509195734 | 46 | 21 | 1.0 | 2.0 | 0.00 | 0.17 | 0.17 | 98 | 1038.7 |
| 20260509195230 | 46 | 17 | 1.0 | 1.0 | 0.00 | 0.17 | 0.17 | 98 | 1038.8 |
| 20260509194724 | 46 | 11 | 1.0 | 1.0 | 0.00 | 0.17 | 0.17 | 98 | 1038.6 |
| 20260509194221 | 46 | 84 | 2.0 | 2.0 | 0.00 | 0.17 | 0.17 | 98 | 1038.8 |
| 20260509193718 | 46 | 9 | 1.0 | 1.0 | 0.00 | 0.17 | 0.17 | 98 | 1038.7 |
| 20260509193218 | 46 | 13 | 1.0 | 1.0 | 0.00 | 0.17 | 0.17 | 98 | 1038.8 |
| 20260509192714 | 46 | 18 | 1.0 | 1.0 | 0.00 | 0.17 | 0.17 | 98 | 1039.0 |
| 20260509192209 | 46 | 352 | 0.0 | 1.0 | 0.00 | 0.17 | 0.17 | 98 | 1039.0 |
| 20260509191705 | 46 | 352 | 0.0 | 1.0 | 0.00 | 0.17 | 0.17 | 98 | 1038.8 |
| 20260509191201 | 46 | 72 | 2.0 | 2.0 | 0.00 | 0.17 | 0.17 | 98 | 1038.9 |